,,,PA_Meas_PMT16A,,PR_Meas_QMR101_102,,RH_Meas_QMH101,,SR_Meas_QMS101,,TA_Meas_QMH101,,GenWind,,GenWind,
date,time,status,PA,status,PR,status,RH,status,SR,status,TA,status,DirAvg,status,SpdAvg,
2012-07-12, 00:00:04,VALID,1001.34,VALID,0,VALID,95.5534,VALID,0,VALID,23.428,VALID,182,VALID,0.0347656,
2012-07-12, 00:01:04,VALID,1001.29,VALID,0,VALID,95.5381,VALID,0,VALID,23.428,VALID,182,VALID,0,
2012-07-12, 00:02:04,VALID,1001.3,VALID,0,VALID,95.5381,VALID,0,VALID,23.4475,VALID,182,VALID,0,
2012-07-12, 00:03:04,VALID,1001.29,VALID,0,VALID,95.5534,VALID,0,VALID,23.4475,VALID,182,VALID,0.105469,
2012-07-12, 00:04:04,VALID,1001.24,VALID,0,VALID,95.5686,VALID,0,VALID,23.428,VALID,182,VALID,0.0296875,
2012-07-12, 00:05:04,VALID,1001.26,VALID,0,VALID,95.5839,VALID,0,VALID,23.4085,VALID,182,VALID,0.183984,
2012-07-12, 00:06:04,VALID,1001.25,VALID,0,VALID,95.6068,VALID,0,VALID,23.389,VALID,182,VALID,0.388672,
2012-07-12, 00:07:04,VALID,1001.21,VALID,0,VALID,95.6373,VALID,0,VALID,23.4085,VALID,182,VALID,0.394141,
2012-07-12, 00:08:04,VALID,1001.21,VALID,0,VALID,95.6373,VALID,0,VALID,23.389,VALID,182,VALID,0.532812,
2012-07-12, 00:09:04,VALID,1001.19,VALID,0,VALID,95.6449,VALID,0,VALID,23.4085,VALID,182,VALID,0.429297,
2012-07-12, 00:10:04,VALID,1001.17,VALID,0,VALID,95.6602,VALID,0,VALID,23.428,VALID,182,VALID,0.405859,
2012-07-12, 00:11:04,VALID,1001.17,VALID,0,VALID,95.6678,VALID,0,VALID,23.4085,VALID,182,VALID,0.447656,
2012-07-12, 00:12:04,VALID,1001.18,VALID,0,VALID,95.6831,VALID,0,VALID,23.4085,VALID,182,VALID,0.389453,
2012-07-12, 00:13:04,VALID,1001.15,VALID,0.5,VALID,95.6754,VALID,0,VALID,23.428,VALID,182,VALID,0.240625,
2012-07-12, 00:14:04,VALID,1001.16,VALID,0,VALID,95.6983,VALID,0,VALID,23.428,VALID,182,VALID,0.322656,
2012-07-12, 00:15:04,VALID,1001.17,VALID,0,VALID,95.6983,VALID,0,VALID,23.4085,VALID,182,VALID,0.287109,
2012-07-12, 00:16:04,VALID,1001.17,VALID,0,VALID,95.706,VALID,0,VALID,23.4085,VALID,182,VALID,0.564844,
2012-07-12, 00:17:04,VALID,1001.17,VALID,0,VALID,95.7136,VALID,0,VALID,23.4085,VALID,125,VALID,0.588672,
2012-07-12, 00:18:04,VALID,1001.15,VALID,0,VALID,95.6907,VALID,0,VALID,23.389,VALID,125,VALID,0.639453,
2012-07-12, 00:19:04,VALID,1001.17,VALID,0,VALID,95.706,VALID,0,VALID,23.4085,VALID,119,VALID,0.475,
2012-07-12, 00:20:04,VALID,1001.15,VALID,0,VALID,95.6831,VALID,0,VALID,23.389,VALID,114,VALID,0.728125,
2012-07-12, 00:21:04,VALID,1001.13,VALID,0,VALID,95.6831,VALID,0,VALID,23.389,VALID,114,VALID,0.499219,
2012-07-12, 00:22:04,VALID,1001.13,VALID,0,VALID,95.6754,VALID,0,VALID,23.389,VALID,114,VALID,0.520703,
2012-07-12, 00:23:04,VALID,1001.11,VALID,0,VALID,95.6754,VALID,0,VALID,23.389,VALID,114,VALID,0.642578,
2012-07-12, 00:24:04,VALID,1001.09,VALID,0,VALID,95.6831,VALID,0,VALID,23.3695,VALID,114,VALID,0.694922,
2012-07-12, 00:25:04,VALID,1001.13,VALID,0,VALID,95.6602,VALID,0,VALID,23.3695,VALID,114,VALID,0.497266,
2012-07-12, 00:26:04,VALID,1001.09,VALID,0,VALID,95.6907,VALID,0,VALID,23.3695,VALID,102,VALID,0.825781,
2012-07-12, 00:27:04,VALID,1001.12,VALID,0,VALID,95.6754,VALID,0,VALID,23.3305,VALID,97,VALID,0.676953,
2012-07-12, 00:28:04,VALID,1001.11,VALID,0,VALID,95.6754,VALID,0,VALID,23.3305,VALID,97,VALID,0.88125,
2012-07-12, 00:29:04,VALID,1001.1,VALID,0.5,VALID,95.6831,VALID,0,VALID,23.3092,VALID,97,VALID,0.844141,
2012-07-12, 00:30:04,VALID,1001.12,VALID,0,VALID,95.6525,VALID,0,VALID,23.3305,VALID,97,VALID,0.826563,
2012-07-12, 00:31:04,VALID,1001.1,VALID,0,VALID,95.6754,VALID,0,VALID,23.3305,VALID,97,VALID,0.746875,
2012-07-12, 00:32:04,VALID,1001.1,VALID,0,VALID,95.6831,VALID,0,VALID,23.35,VALID,101,VALID,0.554297,
2012-07-12, 00:33:04,VALID,1001.13,VALID,0,VALID,95.6983,VALID,0,VALID,23.3305,VALID,127,VALID,1.42578,
2012-07-12, 00:34:04,VALID,1001.1,VALID,0,VALID,95.706,VALID,0,VALID,23.35,VALID,120,VALID,1.21836,
2012-07-12, 00:35:04,VALID,1001.12,VALID,0,VALID,95.6831,VALID,0,VALID,23.35,VALID,128,VALID,1.18867,
2012-07-12, 00:36:04,VALID,1001.11,VALID,0,VALID,95.6831,VALID,0,VALID,23.3695,VALID,133,VALID,1.14492,
2012-07-12, 00:37:04,VALID,1001.13,VALID,0,VALID,95.6525,VALID,0,VALID,23.389,VALID,134,VALID,0.853906,
2012-07-12, 00:38:04,VALID,1001.08,VALID,0,VALID,95.6449,VALID,0,VALID,23.3872,VALID,142,VALID,0.965625,
2012-07-12, 00:39:04,VALID,1001.08,VALID,0,VALID,95.622,VALID,0,VALID,23.4085,VALID,145,VALID,0.754687,
2012-07-12, 00:40:04,VALID,1001.06,VALID,0,VALID,95.6144,VALID,0,VALID,23.389,VALID,145,VALID,0.665234,
2012-07-12, 00:41:04,VALID,1001,VALID,0,VALID,95.5839,VALID,0,VALID,23.3695,VALID,145,VALID,0.557031,
2012-07-12, 00:42:04,VALID,1001.01,VALID,0,VALID,95.5381,VALID,0,VALID,23.3695,VALID,145,VALID,0.282031,
2012-07-12, 00:43:04,VALID,1000.97,VALID,0,VALID,95.5228,VALID,0,VALID,23.3695,VALID,145,VALID,0.244141,
2012-07-12, 00:44:04,VALID,1000.96,VALID,0,VALID,95.5076,VALID,0,VALID,23.3482,VALID,145,VALID,0,
2012-07-12, 00:45:04,VALID,1000.95,VALID,0,VALID,95.5,VALID,0,VALID,23.3695,VALID,145,VALID,0,
2012-07-12, 00:46:04,VALID,1000.92,VALID,0,VALID,95.4847,VALID,0,VALID,23.35,VALID,145,VALID,0.00078125,
2012-07-12, 00:47:04,VALID,1000.94,VALID,0,VALID,95.5,VALID,0,VALID,23.35,VALID,145,VALID,0,
2012-07-12, 00:48:04,VALID,1000.92,VALID,0,VALID,95.5228,VALID,0,VALID,23.3092,VALID,145,VALID,0.46875,
2012-07-12, 00:49:04,VALID,1000.91,VALID,0,VALID,95.5381,VALID,0,VALID,23.35,VALID,145,VALID,0.284766,
2012-07-12, 00:50:04,VALID,1000.91,VALID,0,VALID,95.561,VALID,0,VALID,23.35,VALID,145,VALID,0.487109,
2012-07-12, 00:51:04,VALID,1000.89,VALID,0,VALID,95.5686,VALID,0,VALID,23.3695,VALID,145,VALID,0.817969,
2012-07-12, 00:52:04,VALID,1000.95,VALID,0,VALID,95.5534,VALID,0,VALID,23.3695,VALID,145,VALID,0.847656,
2012-07-12, 00:53:04,VALID,1000.94,VALID,0,VALID,95.561,VALID,0,VALID,23.4085,VALID,144,VALID,0.895703,
2012-07-12, 00:54:04,VALID,1000.94,VALID,0,VALID,95.561,VALID,0,VALID,23.3872,VALID,138,VALID,0.932422,
2012-07-12, 00:55:04,VALID,1000.93,VALID,0,VALID,95.5305,VALID,0,VALID,23.389,VALID,133,VALID,0.840625,
2012-07-12, 00:56:04,VALID,1000.93,VALID,0,VALID,95.5305,VALID,0,VALID,23.4085,VALID,132,VALID,0.680859,
2012-07-12, 00:57:04,VALID,1000.9,VALID,0,VALID,95.5457,VALID,0,VALID,23.389,VALID,132,VALID,0.453125,
2012-07-12, 00:58:04,VALID,1000.92,VALID,0,VALID,95.5381,VALID,0,VALID,23.4085,VALID,132,VALID,0.398047,
2012-07-12, 00:59:04,VALID,1000.91,VALID,0,VALID,95.5686,VALID,0,VALID,23.3677,VALID,132,VALID,0.300391,
2012-07-12, 01:00:04,VALID,1000.9,VALID,0,VALID,95.5839,VALID,0,VALID,23.3695,VALID,132,VALID,0.271094,
2012-07-12, 01:01:04,VALID,1000.89,VALID,0,VALID,95.5991,VALID,0,VALID,23.3677,VALID,132,VALID,0.211719,
2012-07-12, 01:02:04,VALID,1000.88,VALID,0,VALID,95.6297,VALID,0,VALID,23.389,VALID,132,VALID,0.265234,
2012-07-12, 01:03:04,VALID,1000.86,VALID,0,VALID,95.6297,VALID,0,VALID,23.3677,VALID,132,VALID,0.334766,
2012-07-12, 01:04:04,VALID,1000.85,VALID,0,VALID,95.6602,VALID,0,VALID,23.389,VALID,132,VALID,0.516797,
2012-07-12, 01:05:04,VALID,1000.87,VALID,0,VALID,95.6831,VALID,0,VALID,23.4085,VALID,132,VALID,0.668359,
2012-07-12, 01:06:04,VALID,1000.83,VALID,0,VALID,95.706,VALID,0,VALID,23.3872,VALID,132,VALID,0.721484,
2012-07-12, 01:07:04,VALID,1000.86,VALID,0.5,VALID,95.7136,VALID,0,VALID,23.4067,VALID,132,VALID,0.648438,
2012-07-12, 01:08:04,VALID,1000.83,VALID,0,VALID,95.7441,VALID,0,VALID,23.428,VALID,132,VALID,0.680859,
2012-07-12, 01:09:04,VALID,1000.82,VALID,0,VALID,95.7594,VALID,0,VALID,23.4067,VALID,132,VALID,0.503516,
2012-07-12, 01:10:04,VALID,1000.82,VALID,0,VALID,95.7746,VALID,0,VALID,23.4067,VALID,116,VALID,0.764063,
2012-07-12, 01:11:04,VALID,1000.82,VALID,0,VALID,95.7822,VALID,0,VALID,23.428,VALID,116,VALID,0.510156,
2012-07-12, 01:12:04,VALID,1000.8,VALID,0,VALID,95.7899,VALID,0,VALID,23.4067,VALID,116,VALID,0.436719,
2012-07-12, 01:13:04,VALID,1000.77,VALID,0,VALID,95.8051,VALID,0,VALID,23.4067,VALID,116,VALID,0.544922,
2012-07-12, 01:14:04,VALID,1000.77,VALID,0,VALID,95.8204,VALID,0,VALID,23.4067,VALID,115,VALID,0.693359,
2012-07-12, 01:15:04,VALID,1000.74,VALID,0,VALID,95.7975,VALID,0,VALID,23.4067,VALID,115,VALID,0.576563,
2012-07-12, 01:16:04,VALID,1000.73,VALID,0,VALID,95.8204,VALID,0,VALID,23.428,VALID,115,VALID,0.788281,
2012-07-12, 01:17:04,VALID,1000.69,VALID,0,VALID,95.8204,VALID,0,VALID,23.4263,VALID,115,VALID,0.576953,
2012-07-12, 01:18:04,VALID,1000.68,VALID,0,VALID,95.8433,VALID,0,VALID,23.4475,VALID,115,VALID,0.661328,
2012-07-12, 01:19:04,VALID,1000.66,VALID,0,VALID,95.828,VALID,0,VALID,23.4475,VALID,115,VALID,0.533203,
2012-07-12, 01:20:04,VALID,1000.65,VALID,0,VALID,95.8357,VALID,0,VALID,23.4263,VALID,115,VALID,0.542188,
2012-07-12, 01:21:05,VALID,1000.59,VALID,0,VALID,95.8509,VALID,0,VALID,23.4263,VALID,115,VALID,0.437109,
2012-07-12, 01:22:05,VALID,1000.58,VALID,0,VALID,95.8585,VALID,0,VALID,23.4263,VALID,115,VALID,0.403125,
2012-07-12, 01:23:05,VALID,1000.58,VALID,0,VALID,95.8509,VALID,0,VALID,23.428,VALID,115,VALID,0.613672,
2012-07-12, 01:24:05,VALID,1000.58,VALID,0,VALID,95.8738,VALID,0,VALID,23.3872,VALID,115,VALID,0.515234,
2012-07-12, 01:25:05,VALID,1000.56,VALID,0,VALID,95.8814,VALID,0,VALID,23.428,VALID,115,VALID,0.257031,
2012-07-12, 01:26:05,VALID,1000.55,VALID,0,VALID,95.8967,VALID,0,VALID,23.3872,VALID,115,VALID,0.458594,
2012-07-12, 01:27:05,VALID,1000.53,VALID,0,VALID,95.8738,VALID,0,VALID,23.3872,VALID,115,VALID,0.457812,
2012-07-12, 01:28:05,VALID,1000.55,VALID,0,VALID,95.8662,VALID,0,VALID,23.3872,VALID,115,VALID,0.327734,
2012-07-12, 01:29:05,VALID,1000.5,VALID,0,VALID,95.8814,VALID,0,VALID,23.3872,VALID,115,VALID,0.304688,
2012-07-12, 01:30:05,VALID,1000.51,VALID,0,VALID,95.8814,VALID,0,VALID,23.3677,VALID,115,VALID,0.353516,
2012-07-12, 01:31:05,VALID,1000.49,VALID,0,VALID,95.8891,VALID,0,VALID,23.389,VALID,115,VALID,0.451172,
2012-07-12, 01:32:05,VALID,1000.43,VALID,0,VALID,95.8967,VALID,0,VALID,23.389,VALID,115,VALID,0.501172,
2012-07-12, 01:33:05,VALID,1000.41,VALID,0,VALID,95.8891,VALID,0,VALID,23.3695,VALID,115,VALID,0.521875,
2012-07-12, 01:34:05,VALID,1000.39,VALID,0,VALID,95.8738,VALID,0,VALID,23.389,VALID,115,VALID,0.359766,
2012-07-12, 01:35:05,VALID,1000.35,VALID,0,VALID,95.912,VALID,0,VALID,23.389,VALID,115,VALID,0.4,
2012-07-12, 01:36:05,VALID,1000.37,VALID,0,VALID,95.912,VALID,0,VALID,23.3695,VALID,115,VALID,0.391016,
2012-07-12, 01:37:05,VALID,1000.34,VALID,0,VALID,95.912,VALID,0,VALID,23.3695,VALID,115,VALID,0.205078,
2012-07-12, 01:38:05,VALID,1000.34,VALID,0,VALID,95.8891,VALID,0,VALID,23.3677,VALID,115,VALID,0.267578,
2012-07-12, 01:39:05,VALID,1000.33,VALID,0,VALID,95.9043,VALID,0,VALID,23.3287,VALID,115,VALID,0.186328,
2012-07-12, 01:40:05,VALID,1000.32,VALID,0,VALID,95.8891,VALID,0,VALID,23.3482,VALID,115,VALID,0.183594,
2012-07-12, 01:41:05,VALID,1000.34,VALID,0,VALID,95.8891,VALID,0,VALID,23.3482,VALID,115,VALID,0.576563,
2012-07-12, 01:42:05,VALID,1000.34,VALID,0,VALID,95.8891,VALID,0,VALID,23.3482,VALID,30,VALID,0.581641,
2012-07-12, 01:43:05,VALID,1000.3,VALID,0,VALID,95.8738,VALID,0,VALID,23.3482,VALID,30,VALID,0.527734,
2012-07-12, 01:44:05,VALID,1000.27,VALID,0,VALID,95.9043,VALID,0,VALID,23.3677,VALID,30,VALID,0.564844,
2012-07-12, 01:45:05,VALID,1000.23,VALID,0,VALID,95.8738,VALID,0.104696,VALID,23.3677,VALID,30,VALID,0.584375,
2012-07-12, 01:46:05,VALID,1000.21,VALID,0,VALID,95.8738,VALID,0,VALID,23.3482,VALID,30,VALID,0.542969,
2012-07-12, 01:47:05,VALID,1000.18,VALID,0,VALID,95.8814,VALID,0,VALID,23.35,VALID,30,VALID,0.528516,
2012-07-12, 01:48:05,VALID,1000.13,VALID,0,VALID,95.8967,VALID,0,VALID,23.3305,VALID,30,VALID,0.313281,
2012-07-12, 01:49:05,VALID,1000.15,VALID,0,VALID,95.8814,VALID,0,VALID,23.3092,VALID,30,VALID,0.270312,
2012-07-12, 01:50:05,VALID,1000.1,VALID,0,VALID,95.9043,VALID,0,VALID,23.3092,VALID,30,VALID,0.294922,
2012-07-12, 01:51:05,VALID,1000.09,VALID,0,VALID,95.8891,VALID,0,VALID,23.3305,VALID,30,VALID,0.305859,
2012-07-12, 01:52:05,VALID,1000.06,VALID,0,VALID,95.8967,VALID,0,VALID,23.3305,VALID,30,VALID,0.408594,
2012-07-12, 01:53:05,VALID,1000.05,VALID,0,VALID,95.8967,VALID,0,VALID,23.3092,VALID,30,VALID,0.384375,
2012-07-12, 01:54:05,VALID,1000.05,VALID,0,VALID,95.8891,VALID,0,VALID,23.3092,VALID,30,VALID,0.425,
2012-07-12, 01:55:05,VALID,1000.02,VALID,0,VALID,95.8967,VALID,0,VALID,23.3305,VALID,30,VALID,0.483984,
2012-07-12, 01:56:05,VALID,1000.04,VALID,0,VALID,95.8814,VALID,0,VALID,23.35,VALID,30,VALID,0.633203,
2012-07-12, 01:57:05,VALID,1000.03,VALID,0,VALID,95.9043,VALID,0,VALID,23.3305,VALID,30,VALID,0.434375,
2012-07-12, 01:58:05,VALID,1000.05,VALID,0,VALID,95.912,VALID,0,VALID,23.3092,VALID,76,VALID,0.595703,
2012-07-12, 01:59:05,VALID,1000.05,VALID,0,VALID,95.8967,VALID,0,VALID,23.3305,VALID,156,VALID,1.14766,
2012-07-12, 02:00:05,VALID,1000.06,VALID,0,VALID,95.9196,VALID,0,VALID,23.3092,VALID,156,VALID,0.973828,
2012-07-12, 02:01:05,VALID,1000.03,VALID,0,VALID,95.9196,VALID,0,VALID,23.35,VALID,156,VALID,0.895312,
2012-07-12, 02:02:05,VALID,1000.04,VALID,0,VALID,95.9043,VALID,0,VALID,23.3287,VALID,142,VALID,1.18398,
2012-07-12, 02:03:05,VALID,1000.04,VALID,0,VALID,95.9043,VALID,0,VALID,23.3287,VALID,135,VALID,1.19609,
2012-07-12, 02:04:05,VALID,1000.06,VALID,0,VALID,95.9272,VALID,0,VALID,23.3287,VALID,135,VALID,1.18281,
2012-07-12, 02:05:05,VALID,1000.08,VALID,0,VALID,95.9425,VALID,0,VALID,23.3305,VALID,133,VALID,1.06758,
2012-07-12, 02:06:05,VALID,1000.08,VALID,0,VALID,95.912,VALID,0,VALID,23.3305,VALID,115,VALID,1.23906,
2012-07-12, 02:07:05,VALID,1000.07,VALID,0,VALID,95.8967,VALID,0,VALID,23.3092,VALID,113,VALID,1.1418,
2012-07-12, 02:08:05,VALID,1000.08,VALID,0,VALID,95.912,VALID,0,VALID,23.3092,VALID,123,VALID,1.16562,
2012-07-12, 02:09:05,VALID,1000.07,VALID,0,VALID,95.912,VALID,0,VALID,23.3092,VALID,139,VALID,0.953125,
2012-07-12, 02:10:05,VALID,1000.03,VALID,0,VALID,95.8891,VALID,0,VALID,23.3092,VALID,139,VALID,0.754297,
2012-07-12, 02:11:05,VALID,1000,VALID,0,VALID,95.8967,VALID,0,VALID,23.3287,VALID,139,VALID,0.766406,
2012-07-12, 02:12:05,VALID,999.997,VALID,0,VALID,95.8814,VALID,0,VALID,23.311,VALID,139,VALID,0.787109,
2012-07-12, 02:13:05,VALID,999.971,VALID,0,VALID,95.8891,VALID,0,VALID,23.3092,VALID,139,VALID,0.659375,
2012-07-12, 02:14:05,VALID,999.965,VALID,0,VALID,95.8814,VALID,0,VALID,23.3092,VALID,139,VALID,0.736328,
2012-07-12, 02:15:05,VALID,999.929,VALID,0,VALID,95.8891,VALID,0,VALID,23.3287,VALID,159,VALID,0.891797,
2012-07-12, 02:16:05,VALID,999.923,VALID,0,VALID,95.8662,VALID,0,VALID,23.3305,VALID,165,VALID,0.755469,
2012-07-12, 02:17:05,VALID,999.916,VALID,0,VALID,95.8738,VALID,0,VALID,23.35,VALID,165,VALID,0.719531,
2012-07-12, 02:18:05,VALID,999.928,VALID,0,VALID,95.8814,VALID,0,VALID,23.35,VALID,165,VALID,0.696094,
2012-07-12, 02:19:05,VALID,999.878,VALID,0,VALID,95.8662,VALID,0,VALID,23.3092,VALID,165,VALID,0.79375,
2012-07-12, 02:20:05,VALID,999.909,VALID,0,VALID,95.8814,VALID,0,VALID,23.3305,VALID,165,VALID,0.632813,
2012-07-12, 02:21:05,VALID,999.885,VALID,0,VALID,95.8891,VALID,0,VALID,23.311,VALID,165,VALID,0.903125,
2012-07-12, 02:22:05,VALID,999.893,VALID,0,VALID,95.8891,VALID,0,VALID,23.2702,VALID,166,VALID,0.789844,
2012-07-12, 02:23:05,VALID,999.888,VALID,0,VALID,95.8585,VALID,0,VALID,23.2719,VALID,168,VALID,0.835547,
2012-07-12, 02:24:05,VALID,999.873,VALID,0,VALID,95.8433,VALID,0,VALID,23.2915,VALID,177,VALID,0.881641,
2012-07-12, 02:25:05,VALID,999.85,VALID,0,VALID,95.8357,VALID,0,VALID,23.2702,VALID,177,VALID,0.691016,
2012-07-12, 02:26:05,VALID,999.842,VALID,0,VALID,95.828,VALID,0,VALID,23.2719,VALID,177,VALID,1.04023,
2012-07-12, 02:27:05,VALID,999.844,VALID,0,VALID,95.7899,VALID,0,VALID,23.2719,VALID,177,VALID,0.944141,
2012-07-12, 02:28:05,VALID,999.856,VALID,0,VALID,95.7899,VALID,0,VALID,23.2719,VALID,177,VALID,0.823828,
2012-07-12, 02:29:05,VALID,999.794,VALID,0,VALID,95.7441,VALID,0,VALID,23.2507,VALID,177,VALID,0.727344,
2012-07-12, 02:30:05,VALID,999.781,VALID,0,VALID,95.7136,VALID,0,VALID,23.2719,VALID,188,VALID,0.581641,
2012-07-12, 02:31:05,VALID,999.779,VALID,0,VALID,95.6754,VALID,0,VALID,23.2719,VALID,188,VALID,0.442187,
2012-07-12, 02:32:05,VALID,999.75,VALID,0,VALID,95.6754,VALID,0,VALID,23.2507,VALID,188,VALID,0.314063,
2012-07-12, 02:33:05,VALID,999.733,VALID,0,VALID,95.6297,VALID,0,VALID,23.2507,VALID,188,VALID,0.240625,
2012-07-12, 02:34:05,VALID,999.736,VALID,0,VALID,95.6373,VALID,0,VALID,23.2915,VALID,188,VALID,0.233203,
2012-07-12, 02:35:05,VALID,999.741,VALID,0,VALID,95.622,VALID,0,VALID,23.2915,VALID,188,VALID,0.0730469,
2012-07-12, 02:36:05,VALID,999.72,VALID,0,VALID,95.6449,VALID,0,VALID,23.2915,VALID,188,VALID,0.00703125,
2012-07-12, 02:37:05,VALID,999.72,VALID,0,VALID,95.6525,VALID,0,VALID,23.2915,VALID,188,VALID,0.00585938,
2012-07-12, 02:38:05,VALID,999.726,VALID,0,VALID,95.6754,VALID,0,VALID,23.2915,VALID,188,VALID,0,
2012-07-12, 02:39:05,VALID,999.689,VALID,0,VALID,95.6983,VALID,0,VALID,23.2915,VALID,188,VALID,0,
2012-07-12, 02:40:05,VALID,999.734,VALID,0,VALID,95.706,VALID,0,VALID,23.2719,VALID,188,VALID,0.226953,
2012-07-12, 02:41:05,VALID,999.674,VALID,0,VALID,95.7365,VALID,0,VALID,23.2719,VALID,188,VALID,0.575781,
2012-07-12, 02:42:05,VALID,999.675,VALID,0,VALID,95.7594,VALID,0,VALID,23.2524,VALID,188,VALID,0.700391,
2012-07-12, 02:43:05,VALID,999.645,VALID,0,VALID,95.767,VALID,0,VALID,23.2329,VALID,188,VALID,0.816406,
2012-07-12, 02:44:05,VALID,999.656,VALID,0,VALID,95.7899,VALID,0,VALID,23.1939,VALID,152,VALID,1.05781,
2012-07-12, 02:45:05,VALID,999.626,VALID,0,VALID,95.8128,VALID,0,VALID,23.1549,VALID,12,VALID,1.09297,
2012-07-12, 02:46:05,VALID,999.595,VALID,0,VALID,95.8051,VALID,0,VALID,23.0964,VALID,20,VALID,1.43555,
2012-07-12, 02:47:05,VALID,999.58,VALID,0,VALID,95.8357,VALID,0,VALID,23.0556,VALID,20,VALID,1.35,
2012-07-12, 02:48:05,VALID,999.57,VALID,0,VALID,95.8051,VALID,0,VALID,23.0378,VALID,20,VALID,1.30273,
2012-07-12, 02:49:05,VALID,999.561,VALID,0,VALID,95.8509,VALID,0,VALID,23.0166,VALID,20,VALID,1.11797,
2012-07-12, 02:50:05,VALID,999.573,VALID,0,VALID,95.8433,VALID,0,VALID,23.0183,VALID,20,VALID,0.775781,
2012-07-12, 02:51:05,VALID,999.541,VALID,0,VALID,95.8585,VALID,0,VALID,23.0183,VALID,20,VALID,0.792578,
2012-07-12, 02:52:05,VALID,999.545,VALID,0.5,VALID,95.8738,VALID,0,VALID,23.0378,VALID,20,VALID,0.617969,
2012-07-12, 02:53:05,VALID,999.563,VALID,0,VALID,95.8738,VALID,0,VALID,23.0573,VALID,20,VALID,0.721484,
2012-07-12, 02:54:05,VALID,999.55,VALID,0,VALID,95.9043,VALID,0,VALID,23.0361,VALID,20,VALID,0.539844,
2012-07-12, 02:55:05,VALID,999.579,VALID,0,VALID,95.8967,VALID,0,VALID,23.0378,VALID,20,VALID,0.485156,
2012-07-12, 02:56:05,VALID,999.594,VALID,0,VALID,95.9043,VALID,0,VALID,23.0183,VALID,20,VALID,0.377344,
2012-07-12, 02:57:05,VALID,999.583,VALID,0,VALID,95.9196,VALID,0,VALID,22.9971,VALID,20,VALID,0.250781,
2012-07-12, 02:58:05,VALID,999.559,VALID,0,VALID,95.9272,VALID,0,VALID,22.9971,VALID,20,VALID,0.253125,
2012-07-12, 02:59:05,VALID,999.546,VALID,0,VALID,95.912,VALID,0.104696,VALID,22.9971,VALID,20,VALID,0,
2012-07-12, 03:00:05,VALID,999.539,VALID,0,VALID,95.8967,VALID,0,VALID,23.0378,VALID,20,VALID,0,
2012-07-12, 03:01:05,VALID,999.535,VALID,0,VALID,95.9196,VALID,0,VALID,23.0378,VALID,20,VALID,0,
2012-07-12, 03:02:05,VALID,999.568,VALID,0,VALID,95.912,VALID,0,VALID,23.0573,VALID,20,VALID,0,
2012-07-12, 03:03:05,VALID,999.567,VALID,0,VALID,95.9043,VALID,0,VALID,23.0361,VALID,20,VALID,0,
2012-07-12, 03:04:05,VALID,999.577,VALID,0,VALID,95.8967,VALID,0,VALID,23.0361,VALID,20,VALID,0,
2012-07-12, 03:05:05,VALID,999.56,VALID,0,VALID,95.9272,VALID,0,VALID,23.0591,VALID,20,VALID,0,
2012-07-12, 03:06:05,VALID,999.575,VALID,0,VALID,95.912,VALID,0,VALID,23.0591,VALID,20,VALID,0,
2012-07-12, 03:07:05,VALID,999.599,VALID,0,VALID,95.9196,VALID,0,VALID,23.0591,VALID,20,VALID,0,
2012-07-12, 03:08:05,VALID,999.614,VALID,0,VALID,95.912,VALID,0,VALID,23.0183,VALID,20,VALID,0.792578,
2012-07-12, 03:09:05,VALID,999.595,VALID,0,VALID,95.9348,VALID,0,VALID,23.0201,VALID,20,VALID,0.832812,
2012-07-12, 03:10:05,VALID,999.634,VALID,0,VALID,95.9654,VALID,0,VALID,23.0006,VALID,20,VALID,1.1582,
2012-07-12, 03:11:05,VALID,999.605,VALID,0,VALID,95.9654,VALID,0,VALID,22.9598,VALID,20,VALID,1.13906,
2012-07-12, 03:12:05,VALID,999.651,VALID,0,VALID,95.9425,VALID,0,VALID,22.9598,VALID,16,VALID,1.08555,
2012-07-12, 03:13:05,VALID,999.649,VALID,0,VALID,95.9425,VALID,0,VALID,22.9598,VALID,13,VALID,0.808984,
2012-07-12, 03:14:05,VALID,999.642,VALID,0,VALID,95.9272,VALID,0,VALID,22.9403,VALID,13,VALID,0.678125,
2012-07-12, 03:15:05,VALID,999.661,VALID,0,VALID,95.9577,VALID,0,VALID,22.8995,VALID,13,VALID,0.734766,
2012-07-12, 03:16:05,VALID,999.659,VALID,0,VALID,95.9425,VALID,0,VALID,22.9208,VALID,13,VALID,0.737109,
2012-07-12, 03:17:05,VALID,999.664,VALID,0,VALID,95.9501,VALID,0,VALID,22.88,VALID,13,VALID,0.937109,
2012-07-12, 03:18:05,VALID,999.678,VALID,0,VALID,95.9577,VALID,0,VALID,22.8623,VALID,13,VALID,0.735547,
2012-07-12, 03:19:05,VALID,999.667,VALID,0,VALID,95.973,VALID,0,VALID,22.8623,VALID,13,VALID,0.907422,
2012-07-12, 03:20:05,VALID,999.677,VALID,0,VALID,95.9577,VALID,0,VALID,22.8427,VALID,13,VALID,0.694922,
2012-07-12, 03:21:05,VALID,999.683,VALID,0,VALID,95.9806,VALID,0,VALID,22.8232,VALID,13,VALID,0.696484,
2012-07-12, 03:22:05,VALID,999.702,VALID,0,VALID,95.9654,VALID,0,VALID,22.7825,VALID,13,VALID,0.574219,
2012-07-12, 03:23:05,VALID,999.691,VALID,0,VALID,95.9654,VALID,0,VALID,22.7842,VALID,13,VALID,0.491406,
2012-07-12, 03:24:05,VALID,999.711,VALID,0,VALID,95.9577,VALID,0,VALID,22.7842,VALID,13,VALID,0.372656,
2012-07-12, 03:25:05,VALID,999.701,VALID,0,VALID,95.9196,VALID,0,VALID,22.7842,VALID,13,VALID,0.338672,
2012-07-12, 03:26:05,VALID,999.699,VALID,0,VALID,95.9577,VALID,0,VALID,22.7842,VALID,13,VALID,0.233984,
2012-07-12, 03:27:05,VALID,999.714,VALID,0,VALID,95.9272,VALID,0,VALID,22.7842,VALID,13,VALID,0.410156,
2012-07-12, 03:28:05,VALID,999.74,VALID,0,VALID,95.9272,VALID,0,VALID,22.802,VALID,13,VALID,0.404687,
2012-07-12, 03:29:05,VALID,999.781,VALID,0,VALID,95.9272,VALID,0,VALID,22.8037,VALID,13,VALID,0.619922,
2012-07-12, 03:30:05,VALID,999.813,VALID,0,VALID,95.912,VALID,0,VALID,22.8037,VALID,13,VALID,0.669922,
2012-07-12, 03:31:05,VALID,999.868,VALID,0,VALID,95.9272,VALID,0,VALID,22.8037,VALID,13,VALID,0.864844,
2012-07-12, 03:32:05,VALID,999.899,VALID,0,VALID,95.973,VALID,0,VALID,22.724,VALID,17,VALID,1.12305,
2012-07-12, 03:33:05,VALID,999.88,VALID,0,VALID,95.9806,VALID,0,VALID,22.685,VALID,17,VALID,1.15742,
2012-07-12, 03:34:05,VALID,999.915,VALID,0,VALID,95.9959,VALID,0,VALID,22.6477,VALID,18,VALID,1.17305,
2012-07-12, 03:35:05,VALID,999.919,VALID,0,VALID,95.9577,VALID,0,VALID,22.6494,VALID,18,VALID,1.22109,
2012-07-12, 03:36:05,VALID,999.916,VALID,0,VALID,95.9577,VALID,0,VALID,22.6087,VALID,18,VALID,1.00156,
2012-07-12, 03:37:05,VALID,999.897,VALID,0,VALID,95.9577,VALID,0,VALID,22.6299,VALID,18,VALID,0.89375,
2012-07-12, 03:38:05,VALID,999.907,VALID,0,VALID,95.9501,VALID,0,VALID,22.6087,VALID,18,VALID,0.818359,
2012-07-12, 03:39:05,VALID,999.927,VALID,0,VALID,95.9654,VALID,0,VALID,22.5892,VALID,18,VALID,0.897656,
2012-07-12, 03:40:05,VALID,999.933,VALID,0,VALID,95.9501,VALID,0,VALID,22.5909,VALID,18,VALID,0.903516,
2012-07-12, 03:41:05,VALID,999.945,VALID,0,VALID,95.9501,VALID,0,VALID,22.5892,VALID,18,VALID,0.730469,
2012-07-12, 03:42:05,VALID,999.952,VALID,0,VALID,95.9348,VALID,0,VALID,22.5892,VALID,18,VALID,0.829687,
2012-07-12, 03:43:05,VALID,999.96,VALID,0,VALID,95.9501,VALID,0,VALID,22.5892,VALID,18,VALID,0.873828,
2012-07-12, 03:44:05,VALID,999.955,VALID,0,VALID,95.9348,VALID,0,VALID,22.5714,VALID,18,VALID,0.795703,
2012-07-12, 03:45:05,VALID,999.914,VALID,0,VALID,95.9348,VALID,0,VALID,22.5714,VALID,18,VALID,0.665234,
2012-07-12, 03:46:05,VALID,999.967,VALID,0,VALID,95.9043,VALID,0,VALID,22.5696,VALID,18,VALID,0.595703,